Terug naar catalogus

STARLINK-33991

ActiefCommunicatieVLEO
NORAD 64122·PAYLOAD·🇺🇸 United States

Gelanceerd May 23, 2025 vanaf Vandenberg Space Force Base

Loading…

Volgende Passages (komende 24 uur)

TLE

VersSource: CelesTrak SupGP

Epoch: Sep 15, 2026, 03:02 UTC

1 64122C 25110AC  26258.12687500 -.00049038  00000+0 -15769-2 0  2589
2 64122  53.1575 225.0969 0001464  94.1218 163.2312 15.31726305    18

Volg STARLINK-33991 in realtime met AllMySat

Download on the App Store